Weather in Vozrozhdenie

Russia / Saint-Petersburg and Leningrad Oblast     60°51′38″N   28°57′50″E
temp.,
°C
wind,
m/s
gust,
m/s
humid.,
%
clouds,
%
prec.,
mm/h
press.,
hPa
HPBL,
m
24 september, fri
fri2400:00+6se5148399 0.0 10001081
03:00+8se5137545 0.0 9981224
06:00+7ese5117883 0.0 9971162
09:00+7ese4972100 0.1 9971107
12:00+9se476491 0.0 9981044
15:00+11se4656100 0.0 9991420
18:00+8s1275100 0.0 100066
21:00+8sse2681100 0.0 1000303
25 september, sat
sat2500:00+7sse3885100 0.0 1000559
03:00+7sse3888100 0.0 999641
06:00+7sse3896100 1.7 998616
09:00+7sse3896100 3.6 997589
12:00+8sse2696100 0.6 998437
15:00+9sw1295100 0.8 99993
18:00+9wnw3891100 0.3 1001402
21:00+8wnw399399 0.3 1003415
26 september, sun
sun2600:00+8wnw3995100 0.1 1005343
03:00+8nw31093100 0.4 1007474
06:00+8nw41091100 0.1 1010636
09:00+9nw498843 0.3 1013780
12:00+10nnw4778100 0.1 1016907
15:00+10nnw4773100 0.1 1019992
18:00+10n4772100 0.0 1021884
21:00+8nnw277911 0.0 1023246
27 september, mon
mon2700:00+6nnw28945 0.0 1025170
03:00+5n24965 0.0 102698
06:00+5nne24977 0.0 102873
09:00+8nne25897 0.0 1029177
12:00+12ene236823 0.0 1030746
15:00+14ene235844 0.0 10301259
18:00+11ene24754 0.0 103094
21:00+7e22945 0.0 103233
28 september, tue
tue2800:00+6ene12945 0.0 103215
03:00+6ene11955 0.0 103310
06:00+5e22965 0.0 103324
09:00+8e24865 0.0 1034148
12:00+13e23645 0.0 1035743
15:00+14ese125464 0.0 10341359
18:00+12ese1168100 0.1 103414
21:00+10ese2484100 0.1 1034126